Time,TemperatureF,DewpointF,PressureIn,WindDirection,WindDirectionDegrees,WindSpeedMPH,WindSpeedGustMPH,Humidity,HourlyPrecipIn,Conditions,Clouds,dailyrainin,SoftwareType,DateUTC
2013-10-29 00:00:00,72.0,65.5,29.48,North,0,0.0,0.0,80,0.00,,,0.00,WUHU216HW,2013-10-29 05:00:00,
2013-10-29 00:05:00,72.0,65.5,29.48,North,0,0.0,0.0,80,0.00,,,0.00,WUHU216HW,2013-10-29 05:05:00,
2013-10-29 00:30:00,71.8,65.3,29.48,North,0,0.0,0.0,80,0.00,,,0.00,WUHU216HW,2013-10-29 05:30:00,
2013-10-29 00:35:00,71.8,65.3,29.48,North,0,0.0,0.0,80,0.00,,,0.00,WUHU216HW,2013-10-29 05:35:00,
2013-10-29 01:00:00,71.6,65.5,29.48,North,0,0.0,0.0,81,0.00,,,0.00,WUHU216HW,2013-10-29 06:00:00,
2013-10-29 01:05:00,71.6,65.5,29.48,North,0,0.0,0.0,81,0.00,,,0.00,WUHU216HW,2013-10-29 06:05:00,
2013-10-29 01:30:00,71.6,65.5,29.49,North,0,0.0,0.0,81,0.00,,,0.00,WUHU216HW,2013-10-29 06:30:00,
2013-10-29 01:35:00,71.6,65.5,29.49,North,0,0.0,0.0,81,0.00,,,0.00,WUHU216HW,2013-10-29 06:35:00,
2013-10-29 02:00:00,71.6,65.5,29.48,North,0,0.0,0.0,81,0.00,,,0.00,WUHU216HW,2013-10-29 07:00:00,
2013-10-29 02:05:00,71.6,65.5,29.48,North,0,0.0,0.0,81,0.00,,,0.00,WUHU216HW,2013-10-29 07:05:00,
2013-10-29 02:30:00,71.6,65.9,29.48,North,0,0.0,0.0,82,0.00,,,0.00,WUHU216HW,2013-10-29 07:30:00,
2013-10-29 02:35:00,71.6,65.9,29.48,North,0,0.0,0.0,82,0.00,,,0.00,WUHU216HW,2013-10-29 07:35:00,
2013-10-29 03:00:00,72.0,66.3,29.47,North,0,0.0,0.0,82,0.00,,,0.00,WUHU216HW,2013-10-29 08:00:00,
2013-10-29 03:05:00,72.0,66.3,29.47,North,0,0.0,0.0,82,0.00,,,0.00,WUHU216HW,2013-10-29 08:05:00,
2013-10-29 03:30:00,71.8,66.1,29.47,North,0,0.0,0.0,82,0.00,,,0.00,WUHU216HW,2013-10-29 08:30:00,
2013-10-29 03:35:00,71.8,66.1,29.47,North,0,0.0,0.0,82,0.00,,,0.00,WUHU216HW,2013-10-29 08:35:00,
2013-10-29 04:00:00,71.6,65.9,29.47,North,0,0.0,0.0,82,0.00,,,0.00,WUHU216HW,2013-10-29 09:00:00,
2013-10-29 04:05:00,71.6,65.9,29.47,North,0,0.0,0.0,82,0.00,,,0.00,WUHU216HW,2013-10-29 09:05:00,
2013-10-29 04:30:00,71.3,65.5,29.47,North,0,0.0,0.0,82,0.00,,,0.00,WUHU216HW,2013-10-29 09:30:00,
2013-10-29 04:35:00,71.3,65.5,29.47,North,0,0.0,0.0,82,0.00,,,0.00,WUHU216HW,2013-10-29 09:35:00,
2013-10-29 05:00:00,71.5,65.7,29.47,North,0,0.0,0.0,82,0.00,,,0.00,WUHU216HW,2013-10-29 10:00:00,
2013-10-29 05:05:00,71.5,65.7,29.47,North,0,0.0,0.0,82,0.00,,,0.00,WUHU216HW,2013-10-29 10:05:00,
2013-10-29 05:30:00,71.6,65.9,29.46,North,0,0.0,0.0,82,0.00,,,0.00,WUHU216HW,2013-10-29 10:30:00,
2013-10-29 05:35:00,71.6,65.9,29.46,North,0,0.0,0.0,82,0.00,,,0.00,WUHU216HW,2013-10-29 10:35:00,
2013-10-29 06:00:00,71.6,65.9,29.46,North,0,0.0,0.0,82,0.00,,,0.00,WUHU216HW,2013-10-29 11:00:00,
2013-10-29 06:05:00,71.6,65.9,29.46,North,0,0.0,0.0,82,0.00,,,0.00,WUHU216HW,2013-10-29 11:05:00,
2013-10-29 06:30:00,71.5,65.7,29.46,North,0,0.0,0.0,82,0.00,,,0.00,WUHU216HW,2013-10-29 11:30:00,
2013-10-29 06:35:00,71.5,65.7,29.46,North,0,0.0,0.0,82,0.00,,,0.00,WUHU216HW,2013-10-29 11:35:00,
2013-10-29 07:00:00,71.3,65.5,29.47,North,0,0.0,0.0,82,0.00,,,0.00,WUHU216HW,2013-10-29 12:00:00,
2013-10-29 07:05:00,71.3,65.5,29.47,North,0,0.0,0.0,82,0.00,,,0.00,WUHU216HW,2013-10-29 12:05:00,
2013-10-29 07:30:00,71.6,65.9,29.47,North,0,0.0,0.0,82,0.00,,,0.00,WUHU216HW,2013-10-29 12:30:00,
2013-10-29 07:35:00,71.6,65.9,29.47,North,0,0.0,0.0,82,0.00,,,0.00,WUHU216HW,2013-10-29 12:35:00,
2013-10-29 08:00:00,71.6,65.9,29.48,North,0,0.0,0.0,82,0.00,,,0.00,WUHU216HW,2013-10-29 13:00:00,
2013-10-29 08:05:00,71.6,65.9,29.48,North,0,0.0,0.0,82,0.00,,,0.00,WUHU216HW,2013-10-29 13:05:00,
2013-10-29 08:30:00,72.0,66.3,29.49,North,0,0.0,0.0,82,0.00,,,0.00,WUHU216HW,2013-10-29 13:30:00,
2013-10-29 08:35:00,72.0,66.3,29.49,North,0,0.0,0.0,82,0.00,,,0.00,WUHU216HW,2013-10-29 13:35:00,
2013-10-29 09:00:00,72.5,66.8,29.49,North,0,0.0,0.0,82,0.00,,,0.00,WUHU216HW,2013-10-29 14:00:00,
2013-10-29 09:05:00,72.5,66.8,29.49,North,0,0.0,0.0,82,0.00,,,0.00,WUHU216HW,2013-10-29 14:05:00,
2013-10-29 09:30:00,73.1,67.6,29.50,North,0,0.0,0.0,83,0.00,,,0.00,WUHU216HW,2013-10-29 14:30:00,
2013-10-29 09:35:00,73.1,67.6,29.50,North,0,0.0,0.0,83,0.00,,,0.00,WUHU216HW,2013-10-29 14:35:00,
2013-10-29 10:00:00,74.3,68.9,29.50,North,0,0.0,0.0,83,0.00,,,0.00,WUHU216HW,2013-10-29 15:00:00,
2013-10-29 10:05:00,74.3,68.9,29.50,North,0,0.0,0.0,83,0.00,,,0.00,WUHU216HW,2013-10-29 15:05:00,
2013-10-29 10:30:00,76.3,70.5,29.51,North,0,0.0,0.0,82,0.00,,,0.00,WUHU216HW,2013-10-29 15:30:00,
2013-10-29 10:35:00,76.3,70.5,29.51,North,0,0.0,0.0,82,0.00,,,0.00,WUHU216HW,2013-10-29 15:35:00,
2013-10-29 11:00:00,77.8,70.3,29.50,North,0,0.0,0.0,78,0.00,,,0.00,WUHU216HW,2013-10-29 16:00:00,
2013-10-29 11:05:00,77.8,70.3,29.50,North,0,0.0,0.0,78,0.00,,,0.00,WUHU216HW,2013-10-29 16:05:00,
2013-10-29 11:30:00,78.1,70.7,29.50,North,0,0.0,0.0,78,0.00,,,0.00,WUHU216HW,2013-10-29 16:30:00,
2013-10-29 11:35:00,78.1,70.7,29.50,North,0,0.0,0.0,78,0.00,,,0.00,WUHU216HW,2013-10-29 16:35:00,
2013-10-29 12:00:00,78.5,70.7,29.50,North,0,0.0,0.0,77,0.00,,,0.00,WUHU216HW,2013-10-29 17:00:00,
2013-10-29 12:05:00,78.5,70.7,29.50,North,0,0.0,0.0,77,0.00,,,0.00,WUHU216HW,2013-10-29 17:05:00,
2013-10-29 12:30:00,79.6,70.6,29.48,North,0,0.0,0.0,74,0.00,,,0.00,WUHU216HW,2013-10-29 17:30:00,
2013-10-29 12:35:00,79.6,70.6,29.48,North,0,0.0,0.0,74,0.00,,,0.00,WUHU216HW,2013-10-29 17:35:00,
2013-10-29 13:00:00,81.2,70.9,29.47,North,0,0.0,0.0,71,0.00,,,0.00,WUHU216HW,2013-10-29 18:00:00,
2013-10-29 13:05:00,81.2,70.9,29.47,North,0,0.0,0.0,71,0.00,,,0.00,WUHU216HW,2013-10-29 18:05:00,
2013-10-29 13:30:00,80.6,70.4,29.45,North,0,0.0,0.0,71,0.00,,,0.00,WUHU216HW,2013-10-29 18:30:00,
2013-10-29 13:35:00,80.6,70.4,29.45,North,0,0.0,0.0,71,0.00,,,0.00,WUHU216HW,2013-10-29 18:35:00,
2013-10-29 14:00:00,82.3,71.5,29.43,North,0,0.0,0.0,70,0.00,,,0.00,WUHU216HW,2013-10-29 19:00:00,
2013-10-29 14:05:00,82.3,71.5,29.43,North,0,0.0,0.0,70,0.00,,,0.00,WUHU216HW,2013-10-29 19:05:00,
2013-10-29 14:30:00,82.4,70.7,29.42,North,0,0.0,0.0,68,0.00,,,0.00,WUHU216HW,2013-10-29 19:30:00,
2013-10-29 14:35:00,82.4,70.7,29.42,North,0,0.0,0.0,68,0.00,,,0.00,WUHU216HW,2013-10-29 19:35:00,
2013-10-29 15:00:00,83.0,70.8,29.40,North,0,0.0,0.0,67,0.00,,,0.00,WUHU216HW,2013-10-29 20:00:00,
2013-10-29 15:05:00,83.0,70.8,29.40,North,0,0.0,0.0,67,0.00,,,0.00,WUHU216HW,2013-10-29 20:05:00,
2013-10-29 15:30:00,83.5,70.5,29.40,North,0,0.0,0.0,65,0.00,,,0.00,WUHU216HW,2013-10-29 20:30:00,
2013-10-29 15:35:00,83.5,70.5,29.40,North,0,0.0,0.0,65,0.00,,,0.00,WUHU216HW,2013-10-29 20:35:00,
2013-10-29 16:00:00,83.2,70.1,29.39,North,0,0.0,0.0,65,0.00,,,0.00,WUHU216HW,2013-10-29 21:00:00,
2013-10-29 16:05:00,83.2,70.1,29.39,North,0,0.0,0.0,65,0.00,,,0.00,WUHU216HW,2013-10-29 21:05:00,
2013-10-29 16:30:00,84.1,69.2,29.39,North,0,0.0,0.0,61,0.00,,,0.00,WUHU216HW,2013-10-29 21:30:00,
2013-10-29 16:35:00,84.1,69.2,29.39,North,0,0.0,0.0,61,0.00,,,0.00,WUHU216HW,2013-10-29 21:35:00,
2013-10-29 17:00:00,83.0,69.0,29.39,North,0,0.0,0.0,63,0.00,,,0.00,WUHU216HW,2013-10-29 22:00:00,
2013-10-29 17:05:00,83.0,69.0,29.39,North,0,0.0,0.0,63,0.00,,,0.00,WUHU216HW,2013-10-29 22:05:00,
2013-10-29 17:30:00,82.3,68.3,29.39,North,0,0.0,0.0,63,0.00,,,0.00,WUHU216HW,2013-10-29 22:30:00,
2013-10-29 17:35:00,82.3,68.3,29.39,North,0,0.0,0.0,63,0.00,,,0.00,WUHU216HW,2013-10-29 22:35:00,
2013-10-29 18:00:00,81.5,68.1,29.39,North,0,0.0,0.0,64,0.00,,,0.00,WUHU216HW,2013-10-29 23:00:00,
2013-10-29 18:05:00,81.5,68.1,29.39,North,0,0.0,0.0,64,0.00,,,0.00,WUHU216HW,2013-10-29 23:05:00,
2013-10-29 18:30:00,80.6,67.8,29.39,North,0,0.0,0.0,65,0.00,,,0.00,WUHU216HW,2013-10-29 23:30:00,
2013-10-29 18:35:00,80.6,67.8,29.39,North,0,0.0,0.0,65,0.00,,,0.00,WUHU216HW,2013-10-29 23:35:00,
2013-10-29 19:00:00,79.6,67.1,29.40,North,0,0.0,0.0,66,0.00,,,0.00,WUHU216HW,2013-10-30 00:00:00,
2013-10-29 19:05:00,79.6,67.1,29.40,North,0,0.0,0.0,66,0.00,,,0.00,WUHU216HW,2013-10-30 00:05:00,
2013-10-29 19:30:00,78.8,67.3,29.40,North,0,0.0,0.0,68,0.00,,,0.00,WUHU216HW,2013-10-30 00:30:00,
2013-10-29 19:35:00,78.8,67.3,29.40,North,0,0.0,0.0,68,0.00,,,0.00,WUHU216HW,2013-10-30 00:35:00,
2013-10-29 20:00:00,77.8,67.6,29.42,North,0,0.0,0.0,71,0.00,,,0.00,WUHU216HW,2013-10-30 01:00:00,
2013-10-29 20:05:00,77.8,67.6,29.42,North,0,0.0,0.0,71,0.00,,,0.00,WUHU216HW,2013-10-30 01:05:00,
2013-10-29 20:30:00,76.7,67.4,29.44,North,0,0.0,0.0,73,0.00,,,0.00,WUHU216HW,2013-10-30 01:30:00,
2013-10-29 20:35:00,76.7,67.4,29.44,North,0,0.0,0.0,73,0.00,,,0.00,WUHU216HW,2013-10-30 01:35:00,
2013-10-29 21:00:00,75.8,66.9,29.44,North,0,0.0,0.0,74,0.00,,,0.00,WUHU216HW,2013-10-30 02:00:00,
2013-10-29 21:05:00,75.8,66.9,29.44,North,0,0.0,0.0,74,0.00,,,0.00,WUHU216HW,2013-10-30 02:05:00,
2013-10-29 21:30:00,74.9,66.9,29.44,North,0,0.0,0.0,76,0.00,,,0.00,WUHU216HW,2013-10-30 02:30:00,
2013-10-29 21:35:00,74.9,66.9,29.44,North,0,0.0,0.0,76,0.00,,,0.00,WUHU216HW,2013-10-30 02:35:00,
2013-10-29 22:00:00,74.2,66.9,29.45,North,0,0.0,0.0,78,0.00,,,0.00,WUHU216HW,2013-10-30 03:00:00,
2013-10-29 22:05:00,74.2,66.9,29.45,North,0,0.0,0.0,78,0.00,,,0.00,WUHU216HW,2013-10-30 03:05:00,
2013-10-29 22:30:00,73.8,67.3,29.45,North,0,0.0,0.0,80,0.00,,,0.00,WUHU216HW,2013-10-30 03:30:00,
2013-10-29 22:35:00,73.8,67.3,29.45,North,0,0.0,0.0,80,0.00,,,0.00,WUHU216HW,2013-10-30 03:35:00,
2013-10-29 23:00:00,73.6,67.1,29.46,North,0,0.0,0.0,80,0.00,,,0.00,WUHU216HW,2013-10-30 04:00:00,
2013-10-29 23:01:00,73.6,67.1,29.46,North,0,0.0,0.0,80,0.00,,,0.00,WUHU216HW,2013-10-30 04:01:00,
2013-10-29 23:02:00,73.6,67.1,29.46,North,0,0.0,0.0,80,0.00,,,0.00,WUHU216HW,2013-10-30 04:02:00,
2013-10-29 23:07:00,73.6,67.1,29.46,North,0,0.0,0.0,80,0.00,,,0.00,WUHU216HW,2013-10-30 04:07:00,
2013-10-29 23:30:00,73.4,67.3,29.46,North,0,0.0,0.0,81,0.00,,,0.00,WUHU216HW,2013-10-30 04:30:00,
2013-10-29 23:35:00,73.4,67.3,29.46,North,0,0.0,0.0,81,0.00,,,0.00,WUHU216HW,2013-10-30 04:35:00,